Change the Weather History Date:

Monday, March 26, 2012

  Actual Average (KAMN) Record (KAMN)
Temperature  
Mean Temperature 36 °F -  
Max Temperature 44 °F 46 °F 75 °F (2007)
Min Temperature 27 °F 26 °F 7 °F (2014)
Degree Days  
Heating Degree Days 30    
Moisture  
Dew Point 20 °F    
Average Humidity 59    
Maximum Humidity 79    
Minimum Humidity 33    
Precipitation  
Precipitation 0.00 in - - ()
Sea Level Pressure  
Sea Level Pressure 30.34 in    
Wind  
Wind Speed 9 mph (NNE)    
Max Wind Speed 13 mph    
Max Gust Speed 21 mph    
Visibility 10 miles    
Events      
Averages and records for this station are not official NWS values.
T = Trace of Precipitation, MM = Missing Value Source: NWS Daily Summary

Daily Weather History Graph

Daily Weather History Graph

Search for Another Location

Airport or City:

Trip Planner

Search our weather history database for the weather conditions in past years. The results will help you decide how hot, cold, wet, or windy it might be!

Date:

Astronomy

Mar. 26, 2012 Rise Set
Actual Time 7:30 AM EDT 7:59 PM EDT
Civil Twilight 7:01 AM EDT 8:27 PM EDT
Nautical Twilight 6:27 AM EDT 9:01 PM EDT
Astronomical Twilight 5:52 AM EDT 9:37 PM EDT
Moon 9:11 AM EDT (3/26) No Moon Set
Length of Visible Light 13h 26m
Length of Day
12h 28m
Waxing Crescent, 14% of the Moon is Illuminated
Mar 26
Waxing Crescent
Mar 30
First Quarter
Apr 6
Full
Apr 13
Last Quarter
Apr 21
New

Hourly Weather History & Observations

Time (EDT) Temp. Windchill Dew Point Humidity Pressure Visibility Wind Dir Wind Speed Gust Speed Precip Events Conditions
12:14 AM 35.6 °F 29.9 °F 28.4 °F 75% 30.17 in 10.0 mi North 6.9 mph - N/A   Clear
12:35 AM 34.7 °F 26.4 °F 27.5 °F 75% 30.18 in 10.0 mi North 11.5 mph - N/A   Clear
12:55 AM 34.2 °F 25.7 °F 26.6 °F 74% 30.18 in 10.0 mi North 11.5 mph 17.3 mph N/A   Clear
1:14 AM 33.4 °F 24.8 °F 26.2 °F 75% 30.19 in 10.0 mi North 11.5 mph 16.1 mph N/A   Clear
1:35 AM 33.3 °F 27.1 °F 25.9 °F 74% 30.20 in 10.0 mi North 6.9 mph 17.3 mph N/A   Clear
1:55 AM 32.5 °F 27.1 °F 26.6 °F 79% 30.21 in 10.0 mi North 5.8 mph - N/A   Clear
2:15 AM 32.0 °F 24.2 °F 25.3 °F 76% 30.21 in 10.0 mi North 9.2 mph - N/A   Clear
2:35 AM 32.0 °F 23.6 °F 25.3 °F 76% 30.23 in 10.0 mi North 10.4 mph - N/A   Clear
2:55 AM 31.6 °F 26.0 °F 25.2 °F 77% 30.24 in 10.0 mi North 5.8 mph - N/A   Clear
3:15 AM 31.1 °F 25.4 °F 25.2 °F 79% 30.24 in 10.0 mi North 5.8 mph - N/A   Clear
3:35 AM 30.9 °F 24.3 °F 23.9 °F 75% 30.25 in 10.0 mi North 6.9 mph - N/A   Clear
3:55 AM 30.6 °F 21.8 °F 23.2 °F 74% 30.25 in 10.0 mi NNE 10.4 mph - N/A   Clear
4:15 AM 30.2 °F 21.3 °F 22.1 °F 72% 30.26 in 10.0 mi North 10.4 mph - N/A   Clear
4:35 AM 30.2 °F 22.6 °F 22.3 °F 72% 30.27 in 10.0 mi North 8.1 mph - N/A   Clear
4:55 AM 29.8 °F 22.2 °F 22.1 °F 73% 30.28 in 10.0 mi North 8.1 mph - N/A   Clear
5:15 AM 29.7 °F 20.7 °F 21.0 °F 70% 30.29 in 10.0 mi North 10.4 mph 16.1 mph N/A   Clear
5:35 AM 29.1 °F 20.0 °F 21.0 °F 72% 30.29 in 10.0 mi North 10.4 mph - N/A   Clear
5:55 AM 29.1 °F 20.0 °F 19.8 °F 68% 30.31 in 10.0 mi North 10.4 mph 20.7 mph N/A   Clear
6:15 AM 28.4 °F 19.7 °F 19.9 °F 71% 30.31 in 10.0 mi North 9.2 mph - N/A   Clear
6:35 AM 28.4 °F 19.1 °F 18.9 °F 67% 30.32 in 10.0 mi North 10.4 mph 19.6 mph N/A   Clear
6:55 AM 27.9 °F 18.4 °F 19.0 °F 69% 30.33 in 10.0 mi North 10.4 mph - N/A   Clear
7:15 AM 27.3 °F 18.4 °F 19.0 °F 71% 30.34 in 10.0 mi North 9.2 mph - N/A   Clear
7:35 AM 27.1 °F 16.9 °F 18.5 °F 70% 30.35 in 10.0 mi North 11.5 mph - N/A   Clear
7:55 AM 27.3 °F 17.7 °F 18.3 °F 69% 30.36 in 10.0 mi North 10.4 mph - N/A   Clear
8:15 AM 27.5 °F 17.4 °F 18.5 °F 69% 30.37 in 10.0 mi North 11.5 mph - N/A   Clear
8:35 AM 28.2 °F 18.9 °F 18.3 °F 66% 30.38 in 10.0 mi North 10.4 mph - N/A   Clear
8:55 AM 28.6 °F 18.2 °F 18.0 °F 64% 30.39 in 10.0 mi North 12.7 mph 18.4 mph N/A   Clear
9:15 AM 29.8 °F 20.9 °F 18.3 °F 62% 30.39 in 10.0 mi NNE 10.4 mph 17.3 mph N/A   Clear
9:35 AM 30.2 °F 21.3 °F 18.0 °F 60% 30.40 in 10.0 mi NE 10.4 mph - N/A   Clear
9:55 AM 30.9 °F 21.2 °F 18.0 °F 59% 30.40 in 10.0 mi North 12.7 mph 18.4 mph N/A   Clear
10:15 AM 31.5 °F 22.9 °F 18.1 °F 58% 30.40 in 10.0 mi NE 10.4 mph - N/A   Clear
10:35 AM 32.0 °F 22.5 °F 18.7 °F 58% 30.41 in 10.0 mi North 12.7 mph 17.3 mph N/A   Clear
10:54 AM 32.7 °F 25.0 °F 17.8 °F 54% 30.41 in 10.0 mi NNE 9.2 mph - N/A   Clear
11:15 AM 34.0 °F 27.2 °F 18.1 °F 52% 30.42 in 10.0 mi NNE 8.1 mph - N/A   Clear
11:35 AM 34.5 °F 27.3 °F 17.1 °F 49% 30.42 in 10.0 mi ENE 9.2 mph - N/A   Clear
11:55 AM 36.5 °F 30.3 °F 18.0 °F 47% 30.42 in 10.0 mi NE 8.1 mph - N/A   Clear
12:15 PM 36.9 °F 29.6 °F 17.6 °F 46% 30.43 in 10.0 mi NE 10.4 mph - N/A   Clear
12:35 PM 37.8 °F 31.3 °F 17.2 °F 43% 30.43 in 10.0 mi NNE 9.2 mph 16.1 mph N/A   Clear
12:55 PM 37.9 °F 32.1 °F 18.3 °F 45% 30.43 in 10.0 mi NNE 8.1 mph - N/A   Clear
1:15 PM 39.7 °F 34.9 °F 17.8 °F 41% 30.43 in 10.0 mi East 6.9 mph - N/A   Clear
1:35 PM 39.4 °F - 17.2 °F 41% 30.42 in 10.0 mi Calm Calm - N/A   Clear
1:55 PM 40.8 °F 36.2 °F 15.8 °F 36% 30.42 in 10.0 mi ENE 6.9 mph - N/A   Clear
2:15 PM 40.3 °F 35.5 °F 16.0 °F 37% 30.41 in 10.0 mi NNE 6.9 mph - N/A   Clear
2:35 PM 41.2 °F 36.6 °F 17.1 °F 38% 30.40 in 10.0 mi NE 6.9 mph - N/A   Clear
2:55 PM 41.4 °F 39.4 °F 15.8 °F 36% 30.39 in 10.0 mi East 3.5 mph - N/A   Clear
3:15 PM 42.6 °F 38.4 °F 16.0 °F 34% 30.39 in 10.0 mi NE 6.9 mph - N/A   Clear
3:35 PM 42.4 °F 37.0 °F 16.5 °F 35% 30.39 in 10.0 mi ENE 9.2 mph - N/A   Clear
3:55 PM 41.9 °F 40.0 °F 15.1 °F 34% 30.39 in 10.0 mi East 3.5 mph - N/A   Clear
4:15 PM 43.9 °F 39.9 °F 17.1 °F 34% 30.38 in 10.0 mi East 6.9 mph - N/A   Clear
4:35 PM 44.1 °F 42.5 °F 17.8 °F 35% 30.38 in 10.0 mi North 3.5 mph - N/A   Clear
4:55 PM 44.4 °F 41.2 °F 16.9 °F 33% 30.38 in 10.0 mi East 5.8 mph - N/A   Clear
5:15 PM 43.7 °F - 16.0 °F 33% 30.37 in 10.0 mi Calm Calm - N/A   Clear
5:35 PM 44.2 °F 41.0 °F 16.5 °F 33% 30.37 in 10.0 mi North 5.8 mph - N/A   Clear
5:55 PM 43.7 °F 42.1 °F 15.1 °F 32% 30.37 in 10.0 mi East 3.5 mph - N/A   Clear
6:15 PM 44.1 °F 40.8 °F 15.3 °F 31% 30.37 in 10.0 mi NE 5.8 mph - N/A   Clear
6:34 PM 43.3 °F 39.2 °F 20.1 °F 40% 30.37 in 10.0 mi SE 6.9 mph - N/A   Clear
6:55 PM 43.0 °F 38.8 °F 20.1 °F 40% 30.37 in 10.0 mi ESE 6.9 mph - N/A   Clear
7:15 PM 41.2 °F 35.5 °F 23.2 °F 49% 30.37 in 10.0 mi SE 9.2 mph - N/A   Clear
7:34 PM 40.1 °F 34.1 °F 22.8 °F 50% 30.37 in 10.0 mi SE 9.2 mph - N/A   Clear
7:55 PM 38.8 °F 33.2 °F 23.0 °F 53% 30.37 in 10.0 mi ESE 8.1 mph - N/A   Clear
8:15 PM 37.6 °F 31.0 °F 23.0 °F 56% 30.37 in 10.0 mi SE 9.2 mph - N/A   Clear
8:34 PM 36.1 °F 29.3 °F 22.3 °F 57% 30.37 in 10.0 mi ESE 9.2 mph - N/A   Clear
8:55 PM 34.7 °F 29.6 °F 21.7 °F 59% 30.38 in 10.0 mi East 5.8 mph - N/A   Clear
9:15 PM 34.0 °F 27.2 °F 21.2 °F 60% 30.38 in 10.0 mi East 8.1 mph - N/A   Clear
9:34 PM 32.4 °F 27.9 °F 21.2 °F 63% 30.39 in 10.0 mi East 4.6 mph - N/A   Clear
9:55 PM 32.0 °F 27.5 °F 19.9 °F 61% 30.40 in 10.0 mi East 4.6 mph - N/A   Clear
10:15 PM 31.3 °F 26.6 °F 19.9 °F 63% 30.40 in 10.0 mi East 4.6 mph - N/A   Clear
10:34 PM 30.9 °F 26.2 °F 19.6 °F 63% 30.40 in 10.0 mi ENE 4.6 mph - N/A   Clear
10:55 PM 29.3 °F 23.2 °F 19.6 °F 67% 30.40 in 10.0 mi ENE 5.8 mph - N/A   Clear
11:15 PM 29.5 °F - 19.6 °F 67% 30.41 in 10.0 mi Calm Calm - N/A   Clear
11:35 PM 30.2 °F - 19.9 °F 66% 30.41 in 10.0 mi Calm Calm - N/A   Clear
11:55 PM 29.3 °F - 19.8 °F 68% 30.40 in 10.0 mi Calm Calm - N/A   Clear